Regional Weather Roundup
Issued by NWS Bismarck, ND

Home | Current Version | Previous Version | Text Only | Print | Product List | Glossary On
Versions: 1 2 3 4 5 6 7 8 9 10 11 12 13 14 15 16 17 18 19 20 21 22 23 24 25 26 27 28 29 30 31 32 33 34 35 36 37 38 39 40 41 42 43 44 45 46 47 48 49 50
000
ASUS43 KBIS 232310
RWRBIS

NWR BROADCAST TEXT
NATIONAL WEATHER SERVICE BISMARCK ND
600 PM CDT SAT SEP 23 2017

NOTE: "FAIR" INDICATES FEW OR NO CLOUDS BELOW 12,000 FEET WITH NO
SIGNIFICANT WEATHER AND/OR OBSTRUCTIONS TO VISIBILITY.


CITY           SKY/WX    TMP DP  RH WIND       PRES   REMARKS
WILLISTON      CLOUDY    51  39  63 N8        30.12S
MINOT          CLOUDY    53  42  66 N10       30.10S
MINOT AFB      CLOUDY    53  40  63 N7        30.09S
BISMARCK       CLOUDY    57  45  64 N12       30.07S
DICKINSON      LGT RAIN  45  44  97 N7        30.09R
GARRISON         N/A     51  42  71 NE9       30.10R
HETTINGER ARPT CLOUDY    46  43  89 N10       30.07F
JAMESTOWN      PTSUNNY   58  47  66 NE12      30.03S
CARRINGTON     CLOUDY    57  46  67 N10       30.09S
HAZEN          CLOUDY    52  45  76 NE10      30.09F
LINTON         CLOUDY    57  45  62 N13       30.03R
MANDAN         CLOUDY    54  45  71 N12       30.06S
RUGBY          CLOUDY    54  43  66 NE9       30.09F
STANLEY        MOCLDY    46  46 100 N9        30.13F
TIOGA          MOCLDY    46  46 100 NE6       30.14R
WATFORD CITY   MOCLDY    46  45  93 N9        30.11S
$$

CITY           SKY/WX    TMP DP  RH WIND       PRES   REMARKS
GRAND FORKS    CLOUDY    61  50  67 N14       30.04F
GRAND FORKS AF CLOUDY    59  47  64 N13       30.05F
DEVILS LAKE    CLOUDY    55  45  68 N12       30.10R
FARGO          CLOUDY    60  51  72 N15G23    30.01F
CANDO          CLOUDY    54  45  71 N10       30.12S
CAVALIER       CLOUDY    57  48  72 N9        30.09R
GRAFTON        CLOUDY    59  48  67 N9        30.10R
GWINNER        CLOUDY    55  54  94 NE8       30.01R
LANGDON        CLOUDY    54  50  87 N12G17    30.12R
ROLLA          CLOUDY    52  43  71 NE9       30.11F
WALHALLA       FAIR     N/A N/A N/A N10G20    30.11R
$$

CITY           SKY/WX    TMP DP  RH WIND       PRES   REMARKS
ABERDEEN       TSTM      53  52  96 NE16      29.97R
MOBRIDGE       LGT RAIN  54  50  86 NE8       29.99S
BUFFALO          N/A     45  44  97 NE13      30.01S
RAPID CITY     LGT RAIN  46  45  93 N16       30.01F FOG
GLASGOW        PTSUNNY   51  35  54 SE7       30.11F
SIDNEY         LGT RAIN  48  43  82 NE5       30.12S
WOLF POINT     CLOUDY    52  36  54 CALM      30.12F
GLENDIVE       LGT RAIN  45  42  89 NE8       30.10F
MILES CITY     LGT RAIN  44  40  85 NE7       30.09R
BAKER          LGT RAIN  44  43  96 E6        30.09S
$$

CITY           SKY/WX    TMP DP  RH WIND       PRES   REMARKS
BILLINGS       CLOUDY    45  38  76 NE7       30.09R
GREAT FALLS    CLOUDY    51  28  41 SW6       30.06S
REGINA         CLOUDY    50  34  53 N5        30.14S
ESTEVAN        CLOUDY    50  36  57 N9        30.13F
$$





USA.gov is the U.S. government's official web portal to all federal, state and local government web resources and services.